637  
ASHW40 PHFO 201832  
RWRHI  
 
WEATHER ROUNDUP FOR HAWAII  
NATIONAL WEATHER SERVICE HONOLULU HI  
800 AM HST SAT APR 20 2019  
 
THIS IS AN AUTOMATED REPORT THAT HAS NOT BEEN QUALITY CONTROLLED.  
 
NOTE..."FAIR" INDICATES FEW OR NO CLOUDS BELOW 12,000 FEET WITH NO  
SIGNIFICANT WEATHER AND/OR S TO VISIBILITY
.  
 
* - THESE SITES REPORT LIMITED FIELDS  
# - BUOY DATA PROVIDED BY PACIFIC ISLANDS OCEAN OBSERVING SYSTEM.  
 
HIZ001>004-201900-  
KAUAI-NIIHAU-  
 
CITY SKY/WX TMP DP RH WIND PRES REMARKS
 
LIHUE APT PTSUNNY 77 66 68 E18 30.18R  
PORT ALLEN* N/A 75 N/A N/A E14G20 N/A  
POIPU* N/A 77 N/A N/A NE9G20 N/A  
PRINCEVILLE* N/A 73 N/A N/A SE6G12 N/A  
KOKOLE POINT* NOT AVBL  
MOLOAA DAIRY* N/A 75 66 73 E12G18 N/A  
WAIMEA HTS* NOT AVBL  
PUU OPAE* NOT AVBL  
PUU LUA* NOT AVBL  
MAKAHA RIDGE* N/A 70 63 78 S1 N/A  

 
 
HIZ005>011-201900-  
OAHU-  
 
CITY SKY/WX TMP DP RH WIND PRES REMARKS
 
HONOLULU PTSUNNY 76 65 68 E15 30.15R  
KALAELOA PTSUNNY 77 64 64 E8 30.16R  
KANEOHE MCB CLOUDY 76 64 66 NE13 30.14R  
WHEELER FIELD NOT AVBL  
BELLOWS* N/A N/A N/A N/A E20 N/A  
KAHUKU* N/A N/A N/A N/A NE10G21 N/A  
WHEELER* NOT AVBL  
WAIANAE HARBOR NOT AVBL  
DILLINGHAM* N/A 66 63 88 SE1 N/A  
KAHUKU TRN* N/A 75 66 73 CALM N/A  
KAWAILOA* N/A 70 63 78 E5G18 N/A  
KII* N/A 75 68 78 S21 N/A  
MAKUA RANGE* N/A 77 63 61 NE9 N/A  
OAHU FOREST NW NOT AVBL  
SCHOFIELD BRK* N/A 72 63 73 N3 N/A  
SCHOFIELD S* NOT AVBL  
WAIANAE VLY* NOT AVBL  
KUAOKALA* NOT AVBL  
HONOULIUULI* NOT AVBL  
MOKUOLOE IS* N/A 75 N/A N/A E9G15 N/A  
PALEHUA* NOT AVBL  
WAIAWA PHB* NOT AVBL  

 
 
HIZ012>013-201900-  
MOLOKAI-  
 
CITY SKY/WX TMP DP RH WIND PRES REMARKS
 
MOLOKAI AIRPT PTSUNNY 75 67 76 NE13G21 30.16R  
KALAUPAPA NOT AVBL  
MAKAPULAPAI* N/A 73 68 83 E18 N/A  
MOLOKAI 1* NOT AVBL  
PUU ALII* N/A 57 57 99 N2G12 N/A  

 
 
HIZ016-201900-  
KAHOOLAWE-  
 
CITY SKY/WX TMP DP RH WIND PRES REMARKS
 
KAHOOLAWE* NOT AVBL  
HAKIOAWA* N/A 72 67 86 MISG 30.55R  
HONOKANAIA* NOT AVBL  
KANELOA* N/A 73 64 73 E15G35 30.16R  
KEALIALALO* NOT AVBL  
LUA MAKIKA* NOT AVBL  

 
 
HIZ014>015-201900-  
LANAI-  
 
CITY SKY/WX TMP DP RH WIND PRES REMARKS
 
LANAI CITY FAIR 71 67 87 NE16 30.18R  
LANAI 1* NOT AVBL  

 
 
HIZ017>028-201900-  
MAUI-  
 
CITY SKY/WX TMP DP RH WIND PRES REMARKS
 
KAHULUI MOSUNNY 77 67 71 NE15 30.13R  
KAPALUA-W MAUI PTSUNNY 72 68 88 NE16 30.14R  
HANA AIRPORT MOSUNNY 75 63 64 E3 30.22  
HANA* N/A 73 N/A N/A SE5G13 N/A  
HALEAKALA SUMM N/A 45 32 61 NE31 N/A  
MAALAEA BAY* N/A 77 N/A N/A N15G28 N/A  
HALEAKALA* NOT AVBL  
KAUPO GAP* NOT AVBL  
KULA 1* N/A 53 30 41 NE3G15 N/A  

 
 
HIZ023>026-201900-  
BIG ISLAND OF HAWAII COAST AND LOWER SLOPES-  
 
CITY SKY/WX TMP DP RH WIND PRES REMARKS
 
KAILUA KONA MOSUNNY 78 67 68 S8 30.08S  
HILO PTSUNNY 73 66 78 W12 30.17S  
HONOKAA* NOT AVBL  
KAWAIHAE MWT* NOT AVBL  
KAWAIHAE* N/A 79 N/A N/A SE3 N/A  
SOUTH POINT* N/A 68 N/A N/A N1 N/A  
UPOLU AIRPORT* NOT AVBL  
KAMUELA* CLEAR 70 61 73 E9 30.20F  
HAKALAU* N/A 56 51 84 S5 N/A  
KALOKO-HONOKO* N/A 81 66 61 SW6 30.09R  
PALI 2* N/A 66 57 72 NE15 N/A  
KEALAKOMO* N/A 73 66 78 NE13G18 N/A  
KAUPULEHU* NOT AVBL  
KAPAPALA* N/A 69 63 80 NW5G10 N/A  
LOWER KAHUKU* N/A 61 61 100 N3G14 N/A  
PUHE CS* N/A 79 61 53 SE6G15 N/A  
PUHO CS* N/A 78 62 57 E2 N/A  
PTA KEAMUKU* N/A 66 57 72 SW2 N/A  
WAIKOLOA* NOT AVBL  

 
 
HIZ027>028-201900-  
BIG ISLAND OF HAWAII INTERIOR AND SUMMMITS-  
 
CITY SKY/WX TMP DP RH WIND PRES REMARKS
 
BRADSHAW FIELD NOT AVBL  
MK VISITOR CEN N/A 54 5 14 E20 N/A  
MAUNA KEA* N/A 39 -17 9 NE12 N/A  
MAUNA LOA* NOT AVBL  
MAUNA LOA 1* NOT AVBL  
PTA KIPUKA* N/A 59 52 77 NE5 N/A  
PTA RANGE 17* N/A 52 41 66 NW22G35 N/A  
PTA WEST* N/A 61 52 72 NW6 N/A  
NENE CABIN* N/A 54 48 82 E12G22 N/A  
AHUMOA* NOT AVBL  
PTA PORTABLE* NOT AVBL  
PUU MALI* N/A 61 30 31 W5 N/A  

 
 
HIC003-201900-  
NORTHWEST ISLANDS-  
 
CITY SKY/WX TMP DP RH WIND PRES REMARKS
 
MIDWAY ISLAND PTCLDY 73 68 83 SW20 29.98R  
MIDWAY NOS* N/A 73 N/A N/A MISG 29.98R  
FRENCH FRIGATE NOT AVBL  

 
 
PHZ110>124-180-201900-  
BUOY REPORTS  
 
STATION/POSITION TIME TEMP WIND PRES WAVE SWELL
 
AIR SEA DIR/SP/G HT/PER HT/DIR  
(UTC) (F) (DEG/KT/KT) (MB) (FT/S) (FT/D)  
BUOY 51101 1810 75 75 110/ 16/ 19 1022.6  
BUOY 51100 NOT AVBL  
BUOY 51002 1810 1019.0  
BUOY 51003 NOT AVBL  
BUOY 51004 1810 77 80/ 16/ 21 1019.7  
WAIMEA BAY# 1812 73 N/A 4/11 2/310  
MOKAPU POINT# 1800 76 N/A 7/ 7 2/350  
LANAI# 1800 77 N/A 2/13 2/230  
BARBERS PT# 1800 77 N/A 3/11 2/290  
PAUWELA# 1800 75 N/A 7/ 7 2/350  
HILO# 1816 77 N/A 6/ 8 2/ 10  
KANEOHE BAY# 1754 75 N/A 6/ 7 2  
KANEOHE BAY 2# NOT AVBL  
HANALEI# 1806 77 N/A 6/ 7 2/340  
KAHULUI HARBOR 1800 73 40/ 13/ 17 1020.6  
HONOLULU HARBOR 1800 75 77 80/ 2/ 7 1020.9  
PEARL HARBOR# 1800 77 N/A 3/ 6 2/160  
KILO NALU NOT AVBL  
HILO HARBOR 1800 71 77 260/ 3/ 5 1021.0  
MOKUOLOE 1736 75 77 80/ 9/ 13 1021.5R  
NAWILIWILI 1800 75 79 80/ 15/ 18 1021.9  
WHOTS BUOY NOT AVBL  
BUOY 51028 NOT AVBL  

 
   
.....................KEY.....................................
 
 
SKY/WX - SKY CONDITIONS/PRESENT WEATHER  
TMP - TEMPERATURE IN FAHRENHEIT  
DWPT - DEWPOINT IN FAHRENHEIT  
RH - RELATIVE HUMIDITY IN PERCENT  
WIND - DIRECTION AND SPEED /MPH FOR ISLANDS...KTS FOR BUOYS/  
PRES - MEAN SEA LEVEL PRESSURE IN INCHES OF HG  
VSB - VISIBILITY IN MILES  
HX - HEAT INDEX  
WCI - WIND CHILL INDEX  
VRB - VARIABLE WIND DIRECTION  
N/A - NOT AVAILABLE  
 
 
CLICK HERE TO GO TO PREVIOUS BULLETINS.

The Nexlab HI Page Main Text Page